Notices

What's New in latest Release from April 7th, 2021:

- Updated Glossary, including Speed of Maximum Gust, and Total Hourly Precipitation

- Updated national and regional climate services offices contacts and prices information

- Addition of station inventory lists for 1981-2010, 1971-2000, and 1961-1990 Normals.

If you haven't already, please take our survey and provide feedback about our website: https://eccc.sondage-survey.ca/f/LanguageSelection.aspx?s=442ca660-fcf1-47c0-95a9-59707d6fd709

Hourly Data Report for November 12, 2020

SHEARWATER RCS
NOVA SCOTIA
Current Station Operator: ECCC - MSC

44°37'47.000" N
63°30'48.000" W
24.00 m
8205092
71264
AAW

Download Data

Hourly Data (November 2020)
Hourly Data Report for November 12, 2020
TIME
LST
Temp Definition
°C
Dew Point Definition
°C
Rel Hum Definition
%
Precip. Amount Definition
mm

Wind Dir Definition
10's deg

Wind Spd Definition
km/h
Visibility Definition
km
Stn Press Definition
kPa
Hmdx Definition


Wind Chill Definition


Weather Definition


00:00 15.5 14.7 94 0.0 23 19   100.85     LegendNANA
01:00 15.2 14.3 95 0.0 23 18   100.83     LegendNANA
02:00 15.2 14.3 95 0.0 22 16   100.81     LegendNANA
03:00 14.7 14.0 96 0.0 22 18   100.79     LegendNANA
04:00 15.0 14.5 96 0.0 21 18   100.78     LegendNANA
05:00 15.2 14.6 96 0.0 23 17   100.86     LegendNANA
06:00 14.3 14.0 97 0.0 22 11   100.82     LegendNANA
07:00 13.8 13.4 98 0.0 19 15   100.82     LegendNANA
08:00 14.0 13.7 98 0.0 21 8   100.84     LegendNANA
09:00 14.1 13.8 98 0.0 24 6   100.85     LegendNANA
10:00 14.8 14.4 98 0.0 25 5   100.88     LegendNANA
11:00 15.3 14.7 96 0.0 23 4   100.87     LegendNANA
12:00 15.3 14.7 96 0.0 18 7   100.84     LegendNANA
13:00 15.3 14.9 98 0.0 15 3   100.79     LegendNANA
14:00 15.0 14.6 97 0.3 13 5   100.79     LegendNANA
15:00 15.5 15.1 98 0.2   0   100.80     LegendNANA
16:00 15.6 15.3 98 0.0   0   100.84     LegendNANA
17:00 15.3 15.0 98 1.2 24 3   100.85     LegendNANA
18:00 15.1 14.8 98 0.3 25 3   100.90     LegendNANA
19:00 14.2 12.8 91 0.5 32 11   100.92     LegendNANA
20:00 13.8 12.9 94 0.0 33 13   100.99     LegendNANA
21:00 12.6 11.4 93 0.4 35 12   101.06     LegendNANA
22:00 10.3 9.1 93 2.1 35 15   101.19     LegendNANA
23:00 8.9 7.5 91 1.5 36 17   101.18     LegendNANA

Notes on Data Quality.

Legend

  • E = Estimated
  • M = Missing
  • NA = Not Available*
  • [empty] = Indicates an unobserved value
Date modified: